SCP
0 0 0 0 0 0 0 0 0 0 0 0 0 0 0 0 0 0 0 1 1 0 0 0 0 0 0 0 0 0 0 0 0 0 0 0 0 0 0 0 0 0 0 0 0 0 0 0 0
0 0 0 0 0 0 0 0 0 0 0 0 0 0 0 0 0 0 0 0 1 0 0 0 0 0 0 0 0 0 0 0 0 0 0 0 0 0 0 0 0 0 0 0 0 0 0 0 0
0 0 0 0 0 0 0 0 0 0 0 0 0 0 0 0 0 0 0 0 0 0 0 0 0 0 0 0 0 0 0 0 0 0 0 0 0 0 0 0 0 0 0 0 0 0 0 0 0
0 0 0 0 0 0 0 0 0 0 0 0 0 0 0 0 0 0 0 0 0 0 0 0 0 0 0 0 0 0 0 0 0 0 0 0 0 0 0 0 0 0 0 0 0 0 0 0 0
0 0 0 0 0 0 0 0 0 0 0 0 0 0 0 0 0 0 0 0 0 0 0 0 0 0 0 0 0 0 0 0 0 0 0 0 0 0 0 0 0 0 0 0 0 0 0 0 0
0 0 0 0 0 0 0 0 0 0 0 0 0 0 0 0 0 0 0 0 0 0 0 0 0 0 0 0 0 0 0 0 0 0 0 0 0 0 0 0 0 0 0 0 0 0 0 0 0
0 0 0 0 0 0 0 0 0 0 0 0 0 0 0 0 0 0 0 0 0 1 0 0 0 0 0 0 0 0 0 0 0 0 0 0 0 0 0 0 0 0 0 0 0 0 0 0 0
0 0 0 0 0 0 0 0 0 0 0 0 0 0 0 0 0 0 0 0 0 1 1 0 0 0 0 0 0 0 0 0 0 0 0 0 0 0 0 0 0 0 0 0 0 0 0 0 0
0 0 0 0 0 0 0 0 0 1 1 1 0 1 1 0 0 0 0 0 0 1 1 1 0 0 0 0 0 0 0 1 1 1 1 0 0 1 1 1 1 1 0 0 0 0 0 0 0
0 0 0 0 0 0 0 0 0 1 1 1 1 1 1 0 0 0 0 0 0 1 1 1 1 0 0 0 1 1 1 1 1 1 1 1 1 1 1 1 1 1 1 1 0 0 0 0 0
0 0 0 0 0 0 0 0 0 1 1 1 1 1 1 0 0 0 0 0 1 0 1 1 1 1 0 1 1 1 1 1 1 1 1 1 1 1 1 2 2 1 1 1 1 1 0 0 0
0 0 0 0 0 0 0 0 1 1 2 2 2 1 1 1 0 0 0 1 1 1 1 1 1 1 0 1 1 1 1 1 1 2 2 1 1 1 1 2 2 1 1 1 1 1 1 0 0
0 0 0 0 0 0 0 0 1 2 3 3 3 2 1 1 1 1 1 1 1 1 1 1 1 1 1 1 1 1 1 1 1 2 2 1 2 2 2 2 2 1 1 1 1 1 1 1 0
0 0 0 0 0 0 0 0 1 2 3 4 3 3 1 1 1 1 1 1 2 1 1 1 2 2 1 1 1 1 1 2 1 1 2 2 2 3 3 3 2 2 2 2 1 1 1 1 1
0 0 0 0 0 0 0 0 2 3 3 3 3 3 2 2 2 2 2 2 2 2 2 2 2 2 2 2 2 2 2 2 2 2 2 2 3 3 4 4 3 2 2 2 2 1 1 1 1
0 0 0 0 0 0 0 0 2 3 3 3 3 4 4 4 4 3 3 3 3 4 4 4 3 3 3 3 3 3 3 3 2 2 2 3 3 4 4 5 4 3 3 3 2 1 1 1 1
0 0 0 0 0 0 0 0 2 3 3 3 4 5 6 6 5 4 4 4 5 6 6 5 4 4 4 4 4 4 3 4 3 3 3 4 4 4 4 4 4 4 4 3 2 2 2 1 1
0 0 0 0 0 0 0 0 1 2 3 4 4 6 7 7 7 6 5 5 6 8 7 6 5 5 6 6 5 4 4 4 4 4 4 4 4 4 4 4 4 4 4 3 3 2 2 2 2
0 0 0 0 0 0 0 0 1 1 2 3 5 8 10 10 10 9 9 9 10 10 9 7 6 7 7 7 6 5 5 5 5 5 5 5 5 4 4 4 4 3 3 3 3 2 2 2 2
0 0 0 0 0 0 0 0 0 1 2 4 6 9 10 11 12 13 13 14 13 12 10 8 8 8 8 7 6 6 5 5 5 5 5 5 4 4 3 4 4 3 2 2 3 2 2 2 2
0 0 0 0 0 0 0 0 0 1 3 5 8 10 11 11 13 14 14 14 13 12 10 9 9 9 7 6 6 6 5 5 4 4 4 4 4 4 3 3 4 3 3 3 3 2 2 2 1
0 0 0 0 0 0 0 0 0 1 3 6 8 10 11 12 12 12 11 10 9 9 8 8 8 7 6 5 5 5 5 4 3 3 4 4 4 4 3 3 3 3 3 3 3 3 2 2 1
0 0 0 0 0 0 0 0 0 1 4 6 8 9 10 11 10 9 8 7 6 5 5 5 5 4 4 4 4 4 4 3 3 3 3 3 4 3 3 3 3 3 3 3 3 3 3 2 1
0 0 0 0 0 0 0 0 1 2 5 8 10 9 8 7 6 5 5 4 4 3 3 4 4 3 3 3 4 4 4 3 3 3 2 3 3 3 2 2 2 2 3 3 3 3 3 2 2
0 0 0 0 0 0 0 1 2 4 7 10 10 8 6 4 3 3 3 3 3 3 3 3 4 3 3 3 3 3 3 3 2 2 2 2 2 2 2 2 2 2 2 2 2 3 3 2 2
0 0 0 1 0 0 0 1 3 6 7 8 8 6 4 3 2 2 2 2 2 3 3 3 3 3 3 3 2 2 2 2 2 1 1 1 1 1 1 1 1 1 1 1 2 2 2 2 2
0 0 1 1 1 1 0 1 3 5 6 5 5 4 3 2 2 2 2 2 2 2 3 3 3 3 2 2 2 1 1 2 1 1 1 1 1 0 1 1 1 1 1 1 2 2 2 2 2
0 0 1 1 1 1 1 1 2 3 4 3 2 2 1 1 1 1 1 1 1 2 2 2 2 2 1 1 1 1 1 1 1 1 1 0 0 0 0 0 0 1 1 1 1 1 1 1 1
0 0 1 1 1 1 1 1 2 3 3 2 2 1 1 1 1 1 1 1 1 1 1 1 1 1 1 1 1 1 1 1 1 0 0 0 0 0 0 0 0 0 0 0 0 1 1 1 1
0 0 0 1 1 1 1 1 1 2 2 2 2 1 1 1 0 0 0 0 0 1 1 1 1 1 1 1 1 1 1 1 0 0 0 0 0 0 0 0 0 0 0 0 0 0 0 0 0
Wind_Speed
13 15 12 8 7 8 3 6 9 8 12 16 13 12 20 16 13 14 12 19 23 19 17 16 14 13 12 12 13 13 13 12 11 10 10 10 10 10 10 10 9 8 8 7 7 8 8 7 7
13 16 9 7 9 2 5 11 11 10 10 11 10 15 20 16 17 15 14 20 23 19 16 15 15 13 11 11 11 13 13 12 11 10 10 10 10 9 9 9 8 8 7 5 5 7 7 7 7
14 16 8 8 10 3 7 10 8 8 8 11 14 15 13 12 15 14 15 20 21 18 17 17 16 14 12 10 9 11 13 12 11 10 10 10 10 9 9 8 7 7 6 6 5 5 6 6 6
10 8 7 10 10 5 9 9 7 9 9 6 12 14 13 13 16 16 15 19 20 19 18 17 17 15 13 12 10 9 11 11 10 9 9 9 8 9 8 8 6 6 6 6 5 4 4 5 6
9 8 10 12 9 3 10 10 8 8 6 7 15 17 15 16 19 17 15 16 18 19 17 16 16 15 14 13 12 10 10 10 9 8 7 7 5 6 7 6 6 5 6 6 4 3 3 3 5
8 9 11 11 8 1 7 9 6 8 7 7 16 17 13 15 16 15 14 13 18 20 18 16 16 15 13 13 12 12 11 10 10 10 8 7 6 5 5 5 6 5 4 4 4 3 3 3 4
9 11 14 15 9 5 5 6 5 6 3 5 10 16 12 14 15 15 12 12 16 21 18 15 14 14 14 14 14 13 12 11 10 10 9 8 7 7 7 7 7 7 6 5 5 4 5 5 6
10 11 16 15 14 6 7 6 2 4 7 6 2 10 14 17 16 16 12 11 13 18 16 15 14 13 12 12 14 14 13 12 10 9 9 8 9 10 11 10 11 10 8 8 7 7 7 8 8
14 12 14 16 12 6 7 5 4 2 9 6 5 12 22 22 18 16 12 12 9 13 14 13 13 12 12 12 12 13 12 11 11 10 11 10 9 10 11 14 13 13 11 10 10 10 10 10 11
12 12 17 17 11 11 5 2 4 6 11 8 11 18 22 21 18 15 13 14 11 10 11 13 12 10 10 9 10 9 9 9 9 9 10 8 7 6 7 10 13 14 12 11 11 11 11 10 8
16 16 17 18 8 8 10 8 4 9 11 12 14 19 19 20 17 15 13 13 10 9 8 10 12 9 9 7 9 6 6 8 10 8 9 7 6 5 5 5 8 8 10 7 8 9 7 7 6
17 17 17 17 6 4 9 10 2 2 3 10 13 20 18 19 17 16 12 13 12 11 11 9 10 6 5 4 6 4 4 6 5 7 7 5 4 2 2 1 3 4 4 4 4 4 7 8 7
17 17 16 15 10 7 9 9 4 8 10 14 16 18 17 17 16 15 14 14 13 9 9 8 8 6 3 1 1 4 3 3 3 2 6 5 3 3 2 0 1 4 3 5 4 4 4 5 3
15 15 17 16 11 13 10 11 9 10 11 14 16 15 15 16 16 16 14 12 13 11 10 9 8 7 4 3 2 2 2 2 2 2 4 6 4 3 3 3 3 3 4 4 4 3 1 2 3
15 14 15 17 13 14 11 13 11 14 12 11 14 15 15 13 14 15 14 11 13 12 10 9 8 8 7 6 5 4 4 4 4 4 5 5 5 5 5 4 4 4 5 3 3 3 2 4 5
13 16 17 17 17 16 15 14 10 18 17 13 11 12 12 10 11 12 14 11 10 11 10 9 10 11 9 6 5 5 5 4 4 5 5 7 7 6 5 4 5 4 3 2 3 3 3 5 5
14 16 18 19 20 20 18 15 12 13 14 10 10 11 11 12 9 9 14 14 11 9 9 10 8 10 10 9 6 6 4 4 3 3 4 4 5 6 5 4 4 4 3 4 5 4 4 4 4
15 16 19 18 18 20 18 13 9 7 12 11 9 10 11 11 9 7 10 13 12 9 8 8 6 5 7 6 5 5 5 4 4 4 3 4 4 5 5 5 5 5 4 4 4 4 4 3 3
16 15 14 13 11 9 12 11 10 9 9 12 12 10 11 9 8 5 4 5 9 9 8 7 6 5 4 4 5 5 5 4 4 5 6 5 6 7 6 6 6 6 6 6 5 5 5 4 3
12 12 15 16 8 2 6 10 13 12 8 2 5 7 10 11 9 6 6 6 6 7 7 5 4 4 3 1 1 2 4 4 4 4 5 6 7 8 10 8 7 7 7 6 5 5 4 3 4
13 14 15 16 15 9 10 15 17 15 9 7 6 4 6 11 11 9 7 8 7 6 6 5 5 4 3 3 2 2 3 4 6 6 6 7 8 9 9 9 7 8 6 4 4 4 5 4 4
12 10 12 14 14 12 13 14 16 18 17 12 11 9 7 8 10 10 8 6 4 4 5 5 4 3 2 2 2 4 4 6 7 7 8 8 8 8 9 9 8 7 6 4 4 4 4 5 5
12 10 12 14 14 16 16 16 16 16 14 15 14 13 12 10 10 8 7 4 2 2 3 3 2 1 0 2 3 3 5 5 6 7 9 9 8 7 7 8 7 6 5 5 5 3 4 3 4
11 12 14 14 14 19 19 19 18 15 13 16 14 12 12 11 9 7 5 4 2 2 2 3 4 2 1 2 3 4 5 6 8 9 9 8 6 4 5 5 5 5 4 4 3 2 2 2 3
11 12 10 13 15 18 17 20 13 9 4 21 21 16 13 10 7 6 6 4 2 1 1 2 3 3 2 1 1 3 4 6 7 7 7 7 5 4 4 2 1 1 1 0 1 1 1 0 1
10 12 10 10 14 16 9 7 4 11 10 16 18 16 13 11 8 7 6 4 3 2 1 1 1 1 2 2 2 2 4 5 5 6 6 5 4 5 6 5 4 4 4 3 2 1 1 1 1
12 12 13 10 14 17 16 10 8 6 6 12 15 14 12 9 7 8 7 5 3 2 2 2 3 3 3 2 2 0 2 4 4 5 6 5 4 4 6 6 6 5 5 4 3 2 2 2 2
11 13 9 7 8 12 14 18 6 12 8 9 11 11 10 8 6 8 7 5 3 2 1 1 1 1 2 3 3 2 2 3 3 4 5 6 6 5 5 6 6 6 5 5 4 4 5 5 4
6 7 11 9 8 9 10 5 6 5 10 13 13 10 9 9 7 7 7 6 4 2 1 1 1 1 1 2 1 3 3 3 3 3 4 3 3 3 3 3 3 3 3 3 3 3 4 4 5
3 3 4 3 7 9 8 7 9 5 6 14 15 13 10 8 7 6 6 5 3 1 1 1 1 3 3 3 2 2 3 4 4 5 4 3 2 1 0 0 1 1 1 1 2 3 4 3 4
Wind_Direction
264 261 253 265 252 234 267 74 68 59 62 57 41 52 68 55 62 92 118 113 111 116 122 124 120 122 126 135 146 150 149 147 145 143 140 133 121 115 110 106 105 108 113 117 122 116 110 110 119
277 275 269 248 257 278 62 76 68 66 77 80 57 63 74 72 92 107 116 115 115 122 130 124 123 123 125 127 142 152 150 153 155 154 147 139 128 123 118 113 111 110 110 109 120 130 123 122 127
268 270 271 257 266 38 68 77 89 96 76 70 73 57 64 93 104 110 123 123 121 127 123 126 131 128 127 124 126 145 153 156 160 157 147 142 136 133 127 120 118 112 110 108 101 118 129 137 142
267 257 242 259 288 47 76 88 108 106 79 64 92 81 81 87 102 118 138 126 123 125 125 134 137 135 135 134 129 134 150 154 156 156 145 140 140 140 133 130 132 126 110 101 105 114 131 156 161
253 265 261 267 280 52 91 102 117 104 81 73 82 93 93 93 110 131 134 130 132 124 126 133 137 136 139 141 140 138 140 144 146 144 141 142 148 157 151 148 144 136 126 121 121 121 153 174 177
255 253 266 271 274 231 101 105 121 107 106 102 105 109 102 116 125 136 134 145 130 126 124 129 136 139 141 146 147 145 147 146 147 151 153 157 164 171 173 169 164 160 150 150 157 156 165 199 203
258 272 276 282 281 229 150 134 139 124 122 99 115 116 127 138 140 133 139 142 130 124 128 139 141 145 146 146 151 155 156 153 154 158 164 171 181 190 195 197 194 192 193 198 205 209 207 217 223
259 276 281 280 279 270 144 139 174 173 137 90 114 124 145 145 140 132 152 131 123 126 136 143 149 150 155 154 155 158 159 161 168 174 180 191 200 207 211 211 209 207 212 220 225 230 230 227 226
242 259 268 269 278 276 132 156 201 149 118 120 54 80 134 143 141 142 149 130 136 132 137 145 148 155 162 163 160 164 167 174 183 191 200 206 219 218 212 220 211 212 216 221 226 230 234 235 232
230 245 253 265 313 336 35 165 206 166 139 149 114 105 132 142 145 149 153 148 150 136 145 147 149 161 168 166 156 175 178 179 201 197 192 206 226 244 227 204 200 205 212 222 228 234 236 233 240
226 241 263 279 304 320 317 311 204 189 176 169 150 137 146 147 150 153 159 152 147 151 165 151 149 166 179 167 169 190 186 170 203 199 181 204 219 229 214 175 184 202 213 221 223 225 230 232 235
235 245 255 274 313 322 282 301 278 172 123 154 152 143 154 157 159 160 161 151 155 172 172 162 147 169 197 186 172 182 190 171 207 175 176 211 202 234 273 136 152 203 207 211 233 217 218 228 237
231 245 259 259 270 265 274 284 282 113 101 119 129 140 160 165 162 160 163 162 160 178 166 148 144 162 195 287 151 194 226 181 200 179 181 206 209 203 216 200 192 242 213 195 226 259 228 203 224
247 237 257 264 245 251 251 261 233 132 135 137 137 148 169 171 167 165 167 164 160 178 175 155 160 162 178 204 244 265 239 159 261 249 229 200 209 204 175 189 209 246 255 206 192 247 250 220 244
260 259 252 253 244 240 244 256 234 139 146 153 156 163 177 172 169 167 164 168 170 179 177 158 169 175 183 204 213 232 241 212 224 233 241 223 216 215 198 196 205 229 243 227 214 245 241 239 237
243 248 252 249 237 236 235 244 224 160 162 172 181 170 162 158 173 165 162 172 179 175 167 170 184 183 183 199 214 230 236 229 218 232 231 214 218 225 207 204 218 215 225 224 227 227 230 243 252
237 238 244 244 235 222 224 235 256 184 167 169 166 155 152 154 179 168 166 175 179 169 162 171 195 184 182 192 200 230 243 252 251 251 257 233 222 233 231 226 229 217 208 198 229 214 216 239 256
242 232 232 240 241 219 216 221 224 186 154 160 183 165 156 158 171 168 171 177 173 170 160 167 188 197 178 182 193 225 240 245 252 265 281 294 278 259 254 252 237 240 232 205 216 230 222 232 250
272 294 299 272 251 225 214 235 250 231 198 186 170 158 152 153 154 166 165 151 156 154 149 169 189 198 190 189 206 221 233 236 239 245 250 259 272 278 268 265 255 238 243 230 217 219 229 225 219
299 290 287 299 299 234 255 262 256 237 199 156 123 144 150 143 137 108 69 56 89 118 140 163 187 178 180 212 257 292 300 293 286 274 261 249 260 269 270 252 244 238 241 237 226 223 232 239 218
268 265 265 271 283 262 242 252 252 245 199 157 152 152 159 159 149 128 95 69 70 86 97 90 75 72 63 17 334 314 304 291 285 282 275 256 249 245 251 260 249 243 243 238 227 224 232 243 245
266 296 298 277 274 267 245 250 241 232 215 186 174 156 137 125 122 121 110 96 83 85 86 78 70 55 38 348 313 319 307 299 305 307 300 299 291 272 254 255 250 238 228 218 215 217 216 236 253
292 307 306 296 284 275 264 260 258 254 204 183 170 156 134 111 105 107 105 99 94 92 105 117 115 124 44 337 334 320 306 311 314 312 306 303 291 275 266 258 252 236 221 213 205 213 208 210 234
282 287 282 275 270 262 258 260 261 261 206 168 133 131 132 120 110 103 97 96 118 155 178 164 163 171 208 313 337 339 332 325 315 314 315 314 310 298 284 269 250 238 228 220 201 178 180 187 236
274 272 270 263 251 253 254 255 269 305 164 145 142 137 125 115 110 103 94 81 61 38 280 226 201 219 228 233 3 9 349 318 310 322 324 329 334 339 338 329 322 261 227 57 63 83 85 227 283
280 277 265 268 273 278 282 278 1 34 73 114 118 119 118 118 121 116 105 89 64 44 350 260 184 75 50 57 45 13 340 323 327 335 331 333 345 353 2 19 39 54 53 39 23 30 359 293 281
282 270 271 262 268 276 275 255 160 140 134 114 117 118 116 123 136 127 115 104 78 43 24 42 90 75 42 6 328 278 359 358 352 358 2 4 8 5 16 22 31 45 46 37 21 356 322 327 329
298 303 267 245 252 254 255 256 223 171 158 115 115 118 124 139 143 133 130 125 116 93 45 19 73 55 345 330 327 354 50 43 21 26 29 24 20 26 36 33 28 30 30 24 15 352 343 336 288
8 1 336 318 288 283 278 288 66 141 144 129 135 145 155 160 157 148 146 143 139 155 207 225 257 285 300 325 349 353 22 67 59 55 53 50 42 32 33 37 24 16 14 6 355 333 306 271 267
107 103 78 15 324 324 309 301 37 22 168 158 156 157 158 153 149 148 144 136 131 174 249 295 335 339 337 342 344 31 23 33 50 57 49 52 57 78 103 25 313 300 292 286 307 316 323 329 349